Location: Luxembourg
(49.6117°N, 6.1300°E)
Time: 02:11:28
(UTC+01:00)

N. Korean satellite - Pass Details

Date: 08 December 2021
Orbit: 446 x 492 km, 97.3° (Epoch: 16 January)

Event Time Altitude Azimuth Distance (km) Brightness Sun altitude
Rises 06:56:05 0° 0° (N) 2,466 9.9 -12.7°
Reaches altitude 10° 06:58:29 10° 343° (NNW) 1,585 8.8 -12.3°
Maximum altitude 07:01:02 20° 294° (WNW) 1,094 7.7 -11.9°
Drops below altitude 10° 07:03:34 10° 245° (WSW) 1,575 8.7 -11.6°
Sets 07:05:56 0° 229° (SW) 2,444 9.9 -11.2°
